Location: Freistadt
(48.5112°N, 14.5013°E)
Time: 11:14:54
(UTC+01:00)

N. Korean satellite - Pass Details

Date: 03 December 2022
Orbit: 407 x 444 km, 97.3° (Epoch: 28 January)

Event Time Altitude Azimuth Distance (km) Brightness Sun altitude
Rises 05:07:56 0° 17° (NNE) 2,521 10.3 -23.5°
Reaches altitude 10° 05:10:04 10° 23° (NNE) 1,635 9.4 -23.1°
Maximum altitude 05:13:29 49° 99° (E) 609 7.4 -22.6°
Drops below altitude 10° 05:16:50 10° 176° (S) 1,599 9.3 -22.0°
Sets 05:18:53 0° 182° (S) 2,458 10.2 -21.7°
